FW1417 Weather Reports


time (UTC)temp
C
wind
direction
speed
KPH
gust
KPH
rain 1hr
cm
rain 24hr
cm
rain mn
cm
humidity
%
barometer
mb
20260504033208 13 187 3.2 14.5 0.00 0.00 0.00 38 1009.1
20260504032706 13 206 3.2 4.8 0.00 0.00 0.00 37 1009.0
20260504032207 13 182 3.2 8.0 0.00 0.00 0.00 37 1009.0
20260504031707 13 246 3.2 14.5 0.00 0.00 0.00 36 1009.0
20260504031208 13 200 4.8 14.5 0.00 0.00 0.00 36 1009.0
20260504030706 13 234 3.2 12.9 0.00 0.00 0.00 36 1009.0
20260504030206 13 161 4.8 12.9 0.00 0.00 0.00 35 1009.0
20260504025707 13 204 1.6 11.3 0.00 0.00 0.00 36 1009.2
20260504025207 13 197 3.2 11.3 0.00 0.00 0.00 35 1009.1
20260504024706 13 213 3.2 9.7 0.00 0.00 0.00 35 1009.1
20260504023706 13 195 4.8 12.9 0.00 0.00 0.00 34 1009.1
20260504023207 13 199 4.8 12.9 0.00 0.00 0.00 34 1009.1
20260504022706 13 229 1.6 8.0 0.00 0.00 0.00 34 1009.0
20260504022207 13 207 3.2 8.0 0.00 0.00 0.00 34 1009.1
20260504021706 13 176 3.2 8.0 0.00 0.00 0.00 34 1009.0
20260504020706 13 161 3.2 8.0 0.00 0.00 0.00 33 1009.1
20260504020207 13 172 1.6 4.8 0.00 0.00 0.00 33 1009.1
20260504015208 13 213 3.2 8.0 0.00 0.00 0.00 33 1009.0
20260504013707 13 204 1.6 4.8 0.00 0.00 0.00 32 1008.8
20260504013207 14 215 1.6 4.8 0.00 0.00 0.00 32 1008.7
20260504011706 14 209 3.2 8.0 0.00 0.00 0.00 31 1008.7
20260504011206 14 175 1.6 4.8 0.00 0.00 0.00 31 1008.6
20260504010206 14 180 1.6 8.0 0.00 0.00 0.00 31 1008.5
20260504005706 14 217 3.2 8.0 0.00 0.00 0.00 31 1008.3
20260504005206 14 166 1.6 4.8 0.00 0.00 0.00 31 1008.4
20260504004706 14 198 1.6 4.8 0.00 0.00 0.00 31 1008.3
20260504004206 14 262 1.6 3.2 0.00 0.00 0.00 31 1008.3
20260504003706 15 262 1.6 4.8 0.00 0.00 0.00 32 1008.2
20260504003208 15 262 1.6 4.8 0.00 0.00 0.00 32 1008.2
20260504002706 15 265 1.6 4.8 0.00 0.00 0.00 31 1008.0
20260504001707 15 241 0.0 3.2 0.00 0.00 0.00 30 1007.9
20260504001207 15 241 1.6 4.8 0.00 0.00 0.00 29 1007.8
20260504000706 15 265 1.6 8.0 0.00 0.00 0.00 29 1007.7
20260504000206 15 244 1.6 14.5 0.00 0.00 0.00 28 1007.7
20260503235706 15 288 1.6 14.5 0.00 0.00 0.00 28 1007.6
20260503235206 15 301 3.2 11.3 0.00 0.00 0.00 28 1007.6
20260503234706 15 210 1.6 12.9 0.00 0.00 0.00 27 1007.4
20260503234206 16 270 3.2 12.9 0.00 0.00 0.00 27 1007.3
20260503233706 16 218 3.2 12.9 0.00 0.00 0.00 27 1007.2
20260503233206 16 250 4.8 12.9 0.00 0.00 0.00 27 1007.1
20260503232707 16 260 4.8 16.1 0.00 0.00 0.00 26 1007.1
20260503231207 16 247 4.8 19.3 0.00 0.00 0.00 26 1007.0
20260503230707 16 291 3.2 19.3 0.00 0.00 0.00 26 1006.8
20260503230206 16 256 4.8 22.5 0.00 0.00 0.00 25 1006.8
20260503225707 16 15 6.4 22.5 0.00 0.00 0.00 25 1006.8
20260503225207 16 177 8.0 22.5 0.00 0.00 0.00 25 1006.8
20260503224705 16 325 6.4 20.9 0.00 0.00 0.00 25 1006.7
20260503222707 16 271 6.4 27.4 0.00 0.00 0.00 25 1006.8
20260503222206 16 17 9.7 27.4 0.00 0.00 0.00 24 1006.6
20260503221706 16 67 11.3 27.4 0.00 0.00 0.00 23 1006.7
20260503221206 16 311 9.7 22.5 0.00 0.00 0.00 23 1006.8
20260503220706 16 26 6.4 20.9 0.00 0.00 0.00 24 1006.7
20260503220206 16 313 8.0 20.9 0.00 0.00 0.00 24 1006.8
20260503215706 16 182 6.4 25.7 0.00 0.00 0.00 24 1006.9
20260503215206 16 266 11.3 25.7 0.00 0.00 0.00 24 1006.9
20260503213705 16 267 14.5 32.2 0.00 0.00 0.00 23 1007.0
20260503213206 16 293 11.3 32.2 0.00 0.00 0.00 24 1007.1
20260503212706 16 262 6.4 29.0 0.00 0.00 0.00 24 1007.0
20260503212207 16 5 11.3 32.2 0.00 0.00 0.00 24 1007.0
20260503211706 16 15 4.8 32.2 0.00 0.00 0.00 25 1006.9
20260503211207 16 318 11.3 32.2 0.00 0.00 0.00 24 1006.9
20260503210706 16 321 14.5 32.2 0.00 0.00 0.00 24 1006.9
20260503205205 16 229 8.0 27.4 0.00 0.00 0.00 25 1006.8
20260503204706 16 240 11.3 25.7 0.00 0.00 0.00 25 1006.8
20260503204207 15 346 11.3 32.2 0.00 0.00 0.00 26 1006.8
20260503203706 15 263 6.4 32.2 0.00 0.00 0.00 25 1006.9
20260503203206 15 315 9.7 25.7 0.00 0.00 0.00 25 1006.9
20260503202706 15 302 9.7 24.1 0.00 0.00 0.00 25 1006.9
20260503202206 16 310 12.9 24.1 0.00 0.00 0.00 25 1007.0
20260503201707 15 276 8.0 32.2 0.00 0.00 0.00 25 1006.9
20260503201206 15 210 8.0 32.2 0.00 0.00 0.00 25 1007.0
20260503195705 15 266 11.3 25.7 0.00 0.00 0.00 26 1007.3
20260503195206 15 249 4.8 32.2 0.00 0.00 0.00 28 1007.2
20260503194206 15 271 9.7 24.1 0.00 0.00 0.00 27 1007.3
20260503193706 15 265 8.0 22.5 0.00 0.00 0.00 27 1007.3
20260503193205 15 321 9.7 20.9 0.00 0.00 0.00 27 1007.2
20260503192705 14 295 4.8 32.2 0.00 0.00 0.00 28 1007.3
20260503191706 15 267 11.3 29.0 0.00 0.00 0.00 28 1007.5
20260503191206 15 284 9.7 29.0 0.00 0.00 0.00 28 1007.5
20260503190706 15 304 6.4 19.3 0.00 0.00 0.00 27 1007.4
20260503185706 15 265 9.7 24.1 0.00 0.00 0.00 28 1007.7
20260503185206 14 265 11.3 25.7 0.00 0.00 0.00 29 1007.7
20260503184706 14 281 9.7 27.4 0.00 0.00 0.00 28 1008.0
20260503183705 14 300 9.7 32.2 0.00 0.00 0.00 29 1008.0
20260503183206 15 274 9.7 29.0 0.00 0.00 0.00 29 1007.9
20260503182706 14 271 11.3 27.4 0.00 0.00 0.00 29 1007.9
20260503182206 13 283 9.7 32.2 0.00 0.00 0.00 31 1008.0
20260503181205 13 252 8.0 32.2 0.00 0.00 0.00 31 1008.0
20260503180705 13 215 11.3 32.2 0.00 0.00 0.00 32 1008.1
20260503175706 13 245 9.7 32.2 0.00 0.00 0.00 31 1008.1
20260503174706 12 274 9.7 24.1 0.00 0.00 0.00 34 1008.2
20260503173706 13 290 8.0 32.2 0.00 0.00 0.00 32 1008.2
20260503173205 13 273 9.7 32.2 0.00 0.00 0.00 33 1008.3
20260503172705 13 264 9.7 27.4 0.00 0.00 0.00 33 1008.2
20260503171705 13 238 8.0 32.2 0.00 0.00 0.00 33 1008.1
20260503170705 12 246 11.3 32.2 0.00 0.00 0.00 33 1008.2
20260503170206 12 252 11.3 32.2 0.00 0.00 0.00 33 1008.3
20260503160206 12 254 8.0 33.8 0.00 0.00 0.00 32 1008.5
20260503150705 11 284 11.3 33.8 0.00 0.00 0.00 32 1008.7
20260503150206 11 277 8.0 24.1 0.00 0.00 0.00 34 1008.7
20260503131205 10 308 11.3 29.0 0.00 0.00 0.00 46 1008.9
20260503130705 10 304 9.7 22.5 0.00 0.00 0.00 47 1008.9
20260503120205 7 292 8.0 20.9 0.00 0.00 0.00 51 1008.8
20260503110704 7 258 8.0 24.1 0.00 0.00 0.00 53 1008.4
20260503110205 7 323 8.0 20.9 0.00 0.00 0.00 53 1008.4
20260503090205 8 0 8.0 19.3 0.00 0.03 0.00 51 1006.8
20260503081204 8 301 6.4 19.3 0.00 0.03 0.00 50 1006.9
20260503080704 8 17 6.4 20.9 0.00 0.03 0.00 50 1006.9
20260503080204 8 345 8.0 20.9 0.00 0.03 0.00 49 1006.9
20260503072204 9 347 9.7 19.3 0.00 0.03 0.00 48 1006.9
20260503071704 9 315 4.8 19.3 0.00 0.03 0.00 48 1006.9
20260503071205 9 5 8.0 19.3 0.00 0.03 0.00 48 1006.9
20260503070204 9 343 4.8 16.1 0.00 0.03 0.00 47 1006.8
20260503060204 10 341 4.8 19.3 0.00 0.03 0.00 44 1007.0
20260503054705 11 349 6.4 14.5 0.00 0.03 0.00 44 1007.0
20260503054204 11 352 6.4 16.1 0.00 0.03 0.00 43 1007.1
20260503053204 11 27 4.8 11.3 0.00 0.03 0.00 41 1007.0
20260503052704 11 300 4.8 14.5 0.00 0.03 0.00 40 1007.1
20260503052204 11 348 6.4 14.5 0.00 0.03 0.00 40 1007.2
20260503051705 11 320 6.4 14.5 0.00 0.03 0.00 40 1007.4
20260503051204 11 316 3.2 12.9 0.00 0.03 0.00 39 1007.4
20260503050705 11 355 6.4 12.9 0.00 0.03 0.00 39 1007.4
20260503050204 11 328 4.8 16.1 0.00 0.03 0.00 39 1007.4
20260503045707 11 324 4.8 19.3 0.00 0.03 0.00 38 1007.5
20260503045207 11 331 9.7 19.3 0.00 0.03 0.00 38 1007.6
20260503044206 11 297 6.4 24.1 0.00 0.03 0.00 38 1007.4
20260503043707 11 247 9.7 24.1 0.00 0.03 0.00 37 1007.5
20260503043206 11 316 9.7 24.1 0.00 0.03 0.00 37 1007.4
20260503042707 11 19 4.8 19.3 0.00 0.03 0.00 38 1007.5
20260503042208 11 295 8.0 19.3 0.00 0.03 0.00 37 1007.5
20260503041707 11 351 4.8 16.1 0.00 0.03 0.00 36 1007.5
20260503041207 11 303 8.0 16.1 0.00 0.03 0.00 36 1007.5
20260503040207 12 5 6.4 20.9 0.00 0.03 0.00 36 1007.6
20260503034706 12 331 9.7 19.3 0.00 0.03 0.03 35 1007.6
20260503034207 12 36 4.8 19.3 0.00 0.03 0.03 35 1007.4
20260503033706 12 250 8.0 20.9 0.00 0.03 0.03 35 1007.4